星链-30924 (STARLINK-30924 )

导读 | 星芒AI

STARLINK-30924 是 SpaceX Starlink 卫星互联网项目中的第 30924 颗卫星。该卫星属于星链计划的低轨卫星群,旨在为全球用户提供高速互联网服务。它运行在近地轨道,具备先进的通信技术,支持宽带接入和低延迟传输。该卫星的发射和运行有助于扩展 Starlink 的覆盖范围,提升网络性能,并为偏远地区带来更可靠的网络连接。作为星链计划的一部分,它遵循 SpaceX 的可持续太空发展理念,支持全球数字基础设施建设。

基本信息
目录编号:
58412
目录名称:
STARLINK-30924
国际标识:
2023-180L
轨道中心:
EARTH
卫星名称:
星链-30924
卫星全名:
星链-30924 (STARLINK-30924 )
卫星状态:
在轨 (已飞行758 天)
发射日期:
2023-11-22 UTC
国别 :
美国 (US)
星等 :
--
轨道信息
数据来源 国际轨道数据
星历时间: 2025-12-19T09:19:33+0800
18小时前
查看轨道信息
半长轴: 6857.79km
偏心率: 0.0000991
轨道倾角: 43.003°
近地点辐角 134.464°
升交点赤经 2.476°
平近点角 225.629°
近地点: 478.973km
远地点: 480.333km
周期: 94.197分钟
每日圈数: 15.287149
详细信息
固有亮度:
5
最大亮度:
0.3
卫星平台:
Starlink v2.0 mini
覆盖范围:
全球
运营商:
太空探索技术公司
运营商所在国:
美国
制造商(研发单位):
太空探索技术公司
制造商所在国:
美国
使用方式:
暂无
卫星简介
星链(Starlink)计划是由太空探索技术公司(SpaceX)提出的一个巨型低轨卫星互联网星座项目,计划在2019年至2024年间在太空搭建由约1.2万颗卫星组成的“星链”网络,其中1584颗将部署在地球上空550千米处的近地轨道,并从2020年开始工作。该卫星仍在工作。
2D轨道图
3D轨道图
轨道高度分析图
轨道倾角分析图
轨道综合分析图
查看轨道综合分析图